Wind_Speed
35 34 33 32 30 28 27 25 24 22 20 18 19 19 18 17 16 14 12 11 10 9 8 7 7 7 8 9 10 10 11 10 7 3 3 4 6 8 7 8 8 9 8 8 9 6 7 11 11 10 8 5 3 2 3 3 3 4 3 4 3 1 1 2 4 4 3 3 2 1 2 6 6 2 1 4 7 5 6 6 4 5 6 7 7 7 7 8
35 35 35 33 31 29 27 26 24 22 20 18 18 18 17 17 16 14 13 12 11 10 9 8 8 8 9 10 10 11 11 8 4 3 3 3 3 7 8 9 9 7 6 6 7 7 6 4 6 9 7 3 3 3 3 3 4 4 3 4 2 3 0 1 5 4 3 5 4 3 3 4 4 2 1 4 5 5 7 5 4 7 7 8 10 11 12 13
36 37 36 35 32 30 28 26 24 22 20 18 17 18 17 16 16 14 13 14 13 11 10 9 9 9 9 10 10 11 9 4 2 2 2 3 1 5 6 7 6 5 5 4 3 6 5 4 7 8 5 3 3 4 4 3 3 3 3 4 0 3 2 3 5 5 4 7 6 4 4 5 3 2 2 5 7 6 5 2 3 6 5 6 7 10 14 17
36 37 37 36 33 31 29 27 25 22 20 18 17 17 16 15 15 13 12 14 15 13 11 10 10 10 10 10 10 10 6 4 2 3 4 4 2 1 3 3 2 2 3 2 1 4 8 9 9 7 5 4 4 3 4 3 2 2 3 3 1 3 4 3 4 7 6 5 6 5 6 6 4 4 3 5 8 5 2 1 2 5 4 4 5 8 13 16
36 37 38 37 35 32 30 27 25 23 21 18 16 16 16 15 14 13 11 13 15 15 12 11 10 11 11 10 9 8 5 5 2 4 5 3 3 3 2 2 3 2 2 2 1 5 8 8 7 5 5 4 4 4 3 4 2 3 2 2 2 4 4 2 5 7 6 6 6 6 7 4 2 4 4 5 7 2 1 2 2 4 3 5 5 7 11 12
36 38 38 38 36 34 31 28 26 23 21 18 16 15 15 14 12 12 10 10 13 15 14 12 11 12 12 10 7 6 4 3 4 4 4 1 2 3 2 2 3 4 4 2 3 7 6 6 6 5 3 3 5 4 2 3 3 4 2 3 4 5 5 4 5 6 5 7 6 4 4 2 5 6 4 6 6 1 1 3 1 4 4 7 8 7 8 8
36 38 39 39 37 35 32 30 27 24 21 19 16 14 15 13 11 11 10 10 11 14 15 13 13 13 12 9 6 5 5 1 4 1 2 2 3 3 3 4 4 4 4 2 6 7 6 7 6 4 4 4 4 4 4 4 5 6 4 4 6 7 7 5 5 6 7 7 5 4 5 4 7 6 3 5 3 1 1 3 1 7 8 10 8 6 7 7
36 38 39 39 38 36 33 31 28 25 22 19 16 14 14 12 10 9 10 10 10 12 13 13 12 12 11 7 3 5 3 2 2 2 3 4 4 4 4 4 3 3 2 4 10 9 5 6 5 4 4 4 2 3 4 6 7 6 5 4 5 6 6 7 7 8 8 6 6 8 8 5 6 6 3 3 1 1 1 2 3 8 8 8 7 6 7 7
36 38 39 40 39 37 34 32 29 26 23 20 16 13 13 12 9 8 9 10 9 10 12 13 11 10 9 5 4 4 3 3 3 2 4 4 4 5 4 3 3 2 2 6 14 12 5 3 3 4 5 3 3 3 2 4 4 2 5 6 6 7 6 8 8 7 7 4 7 11 8 5 4 4 3 2 2 1 0 2 4 6 6 5 5 5 6 6
35 38 40 40 40 38 35 32 31 28 25 20 15 12 11 10 8 7 8 9 9 9 11 12 11 9 7 4 6 4 3 4 4 1 3 3 3 6 3 2 2 3 5 7 10 7 3 5 5 6 7 3 3 3 3 5 4 4 9 8 8 8 5 6 7 6 6 3 7 10 5 2 2 2 2 3 3 3 3 3 4 5 5 4 4 4 5 6
35 38 40 40 40 39 35 32 31 29 25 18 13 10 9 7 6 7 8 9 9 9 11 11 11 8 4 4 6 2 3 6 4 0 1 2 5 7 3 2 2 4 7 8 5 4 9 13 10 6 4 2 4 5 5 5 7 7 10 9 8 9 6 6 7 5 4 3 3 8 5 4 5 3 4 3 2 4 5 4 2 4 4 3 4 3 4 5
35 37 40 40 40 39 35 32 30 29 25 18 11 6 5 5 5 6 7 9 8 9 9 9 10 6 4 5 3 0 6 7 3 1 1 1 5 6 4 1 2 1 7 9 5 9 17 15 11 7 2 3 4 5 4 3 7 7 7 7 6 7 6 3 3 2 3 2 2 4 5 5 5 1 4 3 3 5 5 4 2 3 3 3 4 3 3 4
35 37 39 40 40 39 35 31 29 28 25 18 9 3 2 4 5 6 7 8 8 8 8 8 9 6 5 3 1 5 11 7 3 1 2 2 4 5 5 3 2 3 11 15 11 11 13 12 15 10 3 5 3 4 5 3 5 5 4 5 4 5 3 1 2 2 4 4 1 4 2 4 4 4 5 2 4 6 5 3 3 3 3 3 3 3 3 3
34 36 38 40 39 38 35 31 27 26 24 17 9 4 2 3 4 5 7 8 6 6 5 6 8 5 4 2 2 9 13 7 4 1 2 4 7 7 7 8 8 8 15 18 14 11 13 18 19 8 2 3 4 5 5 4 4 4 3 3 3 3 1 3 1 3 3 2 1 6 3 4 5 6 5 3 4 6 5 4 4 4 3 3 3 3 3 2
34 36 38 39 39 38 35 30 26 25 21 15 9 5 3 2 4 7 10 9 5 4 3 4 7 4 3 3 3 9 11 8 5 1 4 6 9 7 5 10 13 13 15 16 15 14 15 17 12 5 2 3 4 6 4 3 3 3 2 2 3 3 1 4 2 5 3 2 1 5 2 3 5 7 5 3 4 5 5 4 4 4 4 3 3 3 3 2
34 36 38 38 39 37 34 29 25 24 19 12 9 6 4 4 6 8 13 10 4 3 3 3 5 5 3 2 3 6 6 7 7 2 6 7 9 8 8 13 15 16 17 16 15 13 12 12 6 3 4 4 5 6 3 4 3 3 3 1 1 3 1 2 2 4 4 3 1 3 2 2 4 6 6 3 5 5 5 5 5 5 4 4 3 3 3 3
34 36 37 38 38 37 34 28 24 23 17 10 8 7 5 5 4 7 14 12 3 3 5 2 3 4 2 3 3 3 4 8 9 3 10 9 7 8 9 9 9 11 14 11 9 7 8 7 2 1 4 3 3 4 4 3 3 3 3 2 1 2 2 1 2 3 3 4 1 2 2 3 4 5 6 5 5 5 5 5 5 4 4 3 3 3 3 4
34 36 37 38 38 36 34 27 23 22 16 8 5 6 4 2 2 5 12 12 1 2 5 2 4 4 2 4 2 4 9 10 6 6 11 8 6 6 5 5 5 5 6 5 4 4 4 4 2 2 3 3 2 4 4 1 3 2 1 2 1 1 2 2 3 3 4 3 2 2 0 5 6 4 5 5 5 6 5 5 4 4 4 3 4 4 4 4
34 36 36 38 37 36 33 25 21 21 16 9 3 3 4 3 2 3 10 11 2 1 2 1 4 2 4 5 4 7 11 7 1 5 8 6 6 5 5 8 5 3 3 2 3 3 2 3 4 3 1 1 3 3 4 5 6 6 4 4 4 2 2 4 4 4 6 4 2 4 2 4 5 5 5 5 5 5 5 4 4 4 4 4 4 4 4 5
34 35 36 38 37 35 33 24 19 21 20 14 4 2 5 6 4 4 10 8 0 1 2 3 1 2 5 6 5 8 8 2 2 2 4 6 5 3 3 6 6 5 3 1 2 1 3 4 2 2 4 5 5 4 5 4 6 7 5 4 3 2 2 3 3 3 5 4 2 4 3 4 5 6 6 4 4 5 6 5 5 5 4 5 5 4 5 5
34 35 36 38 37 35 32 21 16 19 21 22 17 9 4 3 2 3 6 6 6 5 5 6 4 4 8 8 7 5 3 1 1 2 3 4 2 2 2 4 5 4 2 1 1 2 5 5 1 4 5 4 2 3 4 4 6 5 5 4 2 1 2 3 1 3 4 2 3 2 3 6 6 5 5 4 5 7 8 8 7 7 5 4 5 6 6 4
34 35 36 38 36 35 31 19 14 16 18 25 24 11 4 3 2 4 2 4 7 4 4 5 3 5 10 11 10 3 3 2 5 5 4 4 2 1 1 4 5 0 3 3 2 4 5 1 4 4 3 4 5 4 6 5 5 4 3 4 1 1 2 3 2 2 2 1 3 2 3 6 6 5 5 6 7 7 7 8 7 6 6 5 6 6 5 4
33 35 36 38 36 35 29 15 12 15 16 20 18 10 4 8 8 2 2 1 6 4 2 3 2 4 6 5 4 4 3 1 3 6 5 7 1 1 2 5 4 1 3 3 2 3 3 3 4 2 5 7 5 4 6 6 4 3 3 4 1 2 2 1 2 1 2 1 1 2 1 5 5 3 5 6 7 5 4 7 6 5 7 7 7 6 6 6
33 34 35 37 36 36 27 10 11 19 15 10 11 9 10 14 12 2 3 0 4 5 3 3 2 4 4 3 2 5 1 2 3 4 6 9 2 1 3 3 4 3 2 1 5 5 1 4 2 5 6 7 5 3 5 5 3 0 3 4 3 3 3 3 2 1 2 3 1 4 3 5 3 3 6 4 3 4 4 5 6 6 7 6 6 6 7 7
32 32 34 36 36 37 23 5 12 23 14 5 6 11 16 17 15 2 3 2 2 6 4 2 1 3 3 1 2 3 0 1 3 4 6 10 5 1 1 2 3 2 2 3 5 4 1 3 2 5 5 5 5 1 2 4 2 3 2 4 5 5 4 4 4 4 4 4 2 4 3 5 4 3 7 3 1 5 3 5 8 7 6 6 6 6 6 7
32 31 33 34 35 38 20 3 15 24 10 3 5 15 17 19 13 2 4 4 1 4 4 0 0 2 2 1 1 1 3 3 5 2 4 8 6 2 0 1 2 2 4 3 3 2 1 1 3 5 4 5 4 1 3 5 4 2 1 4 5 6 7 7 6 4 2 2 3 3 4 3 6 4 6 4 4 6 4 5 8 6 6 7 7 6 6 6
30 29 32 31 33 35 16 2 19 18 2 4 13 17 19 18 6 6 3 5 1 2 2 1 1 1 1 1 1 3 1 5 4 1 3 6 3 3 1 2 2 1 3 3 3 1 2 3 5 5 5 5 3 2 3 5 5 1 1 4 6 7 7 7 6 4 1 2 3 4 4 0 4 5 5 4 3 6 7 7 7 6 7 7 7 7 7 8
29 29 30 29 32 31 14 10 20 11 1 11 17 18 21 14 1 6 5 4 1 2 0 2 2 1 2 2 4 3 2 3 1 1 0 5 3 3 2 3 3 3 1 5 1 4 2 2 2 4 4 2 2 4 5 6 4 2 1 5 6 6 6 5 5 3 1 2 3 5 2 1 4 6 5 3 1 6 8 10 9 7 8 8 7 7 7 8
29 29 29 30 31 25 17 17 15 7 9 17 18 20 19 7 4 4 5 3 2 2 0 2 1 2 3 3 4 3 2 1 1 4 2 4 1 3 3 2 4 3 2 5 3 4 1 2 5 6 3 2 4 3 4 5 3 2 4 7 6 6 6 4 4 3 3 4 2 5 1 2 4 6 4 3 1 6 8 9 8 7 7 7 8 7 7 7
29 29 28 30 29 25 23 20 10 8 15 19 19 20 12 2 4 5 3 1 1 1 1 1 1 2 3 2 4 4 1 2 2 3 3 2 3 4 3 2 5 5 3 5 2 2 3 2 3 4 2 4 3 2 2 3 4 4 4 6 5 5 5 4 3 3 3 3 5 5 2 3 2 5 3 2 3 5 6 6 5 5 6 7 7 7 7 7
29 28 27 29 29 24 19 13 9 14 18 18 19 13 4 2 5 5 2 2 1 2 2 2 2 3 4 1 3 3 1 3 3 2 1 0 3 4 2 1 3 4 4 5 2 4 6 3 0 1 2 3 4 4 3 4 4 5 4 4 3 3 4 4 4 4 3 2 5 4 1 4 1 4 4 5 6 6 5 6 6 6 7 8 7 7 7 7
29 29 27 27 26 22 13 9 14 18 16 16 14 6 4 2 2 2 2 2 1 2 1 1 3 3 3 1 2 2 1 2 3 1 3 1 1 1 2 3 2 3 4 2 1 4 4 1 3 4 1 3 5 4 4 6 5 5 4 5 3 3 3 3 3 2 1 2 2 1 1 2 3 7 7 7 8 7 7 7 7 7 8 8 8 8 7 6
30 29 28 25 24 22 16 12 14 13 13 13 8 4 6 4 1 3 2 2 1 2 1 1 3 2 1 1 2 3 1 2 3 0 2 1 0 2 2 2 5 3 1 2 1 3 3 5 5 3 2 1 5 4 0 2 2 3 3 3 3 2 3 3 3 2 2 3 2 2 1 1 4 5 6 8 8 7 7 8 8 8 8 9 8 7 7 6
29 28 28 24 18 16 11 7 7 7 10 8 4 5 5 2 3 2 1 3 2 2 2 1 3 3 2 1 2 3 0 2 2 1 1 2 1 2 3 2 2 4 3 1 0 1 2 4 3 1 1 0 3 4 4 4 2 2 4 4 3 3 2 1 2 1 2 3 3 4 1 1 2 3 4 6 6 5 6 6 6 6 5 6 5 6 7 7
27 26 24 16 10 7 3 1 2 4 6 5 6 5 3 3 3 2 2 3 1 3 4 2 2 4 4 3 3 1 0 2 2 2 1 1 2 3 2 3 3 3 4 2 2 1 2 3 6 3 0 3 2 2 4 6 3 1 2 4 1 2 4 2 2 3 2 2 3 2 2 3 4 5 4 3 4 4 5 4 3 4 4 5 6 6 7 6
26 24 15 9 9 6 1 2 1 3 4 4 6 3 3 4 3 3 3 1 1 2 4 4 4 5 4 4 4 4 2 1 2 2 1 1 2 3 3 4 4 5 5 4 3 1 2 3 6 4 2 2 3 4 3 3 1 1 1 1 2 2 6 4 1 0 3 2 2 1 3 5 3 4 5 5 5 5 5 5 1 3 4 6 6 6 7 7
26 22 11 8 11 7 1 2 1 3 4 6 4 2 4 3 3 4 2 1 2 1 3 3 2 2 1 2 3 4 2 1 2 1 1 3 2 4 3 3 4 7 6 5 2 3 4 1 6 2 2 2 1 5 4 3 2 2 1 3 2 2 4 3 1 3 4 2 3 2 3 5 3 2 6 7 6 6 5 4 2 2 4 5 6 6 6 7
23 17 8 6 11 8 3 3 2 3 5 5 1 3 3 1 2 3 1 0 1 2 4 2 0 1 2 1 2 5 2 2 3 1 1 2 2 3 2 3 2 4 5 4 2 1 4 0 6 2 2 4 3 5 4 5 3 2 2 3 2 2 1 2 2 2 3 2 4 4 4 3 2 2 5 6 5 6 5 2 1 3 5 6 6 6 6 6
14 9 3 4 11 10 4 3 3 4 5 3 1 2 2 2 3 4 3 1 1 1 2 2 1 1 2 3 1 3 2 1 1 1 2 1 2 2 0 2 1 1 0 4 3 0 3 3 3 3 1 2 4 3 1 3 4 4 2 2 2 2 3 0 1 1 1 1 2 4 4 3 4 5 4 6 7 6 5 4 4 6 7 6 6 6 7 7
6 3 1 2 10 9 2 2 4 5 4 2 4 2 2 2 4 5 4 2 1 1 2 3 1 1 2 2 1 2 1 2 2 1 1 1 2 4 2 1 2 2 2 5 4 2 3 3 2 4 3 1 0 1 4 4 1 2 1 1 2 1 2 0 1 1 2 2 1 1 3 5 6 4 6 8 8 6 6 6 6 7 7 6 6 7 7 7
3 2 3 2 8 5 2 3 4 3 2 1 3 2 2 2 2 5 4 2 3 2 2 4 3 2 2 1 1 2 1 2 2 2 1 1 1 2 2 0 2 3 2 5 4 2 1 2 3 1 2 2 4 5 4 6 5 5 3 3 3 2 3 2 3 3 1 2 3 2 2 7 6 3 6 7 6 5 6 6 6 6 7 7 6 7 7 7
2 1 4 3 6 2 4 3 2 1 2 2 2 2 2 2 2 3 4 1 2 2 1 2 3 2 2 2 1 2 1 3 2 2 1 1 2 3 4 4 3 2 3 3 1 2 3 4 3 1 2 5 7 5 2 3 4 5 2 2 3 3 4 4 1 3 1 2 1 3 0 6 7 3 4 5 5 5 5 6 6 6 6 6 6 6 7 6
2 3 5 5 5 3 5 2 3 1 1 3 2 2 2 2 2 3 3 2 1 1 1 0 2 2 1 2 1 1 1 2 1 0 1 2 3 5 4 8 4 2 4 2 2 1 2 4 4 1 4 4 5 4 3 3 5 5 2 1 3 1 3 5 4 3 2 2 1 2 1 6 6 2 2 5 6 5 5 6 7 6 5 5 6 7 7 7
2 3 4 3 5 3 3 1 1 1 3 3 3 3 2 1 2 2 3 2 1 0 1 0 2 2 1 1 2 1 0 1 1 2 1 2 2 2 3 8 3 2 2 2 3 2 1 1 4 3 4 5 6 6 6 5 3 2 2 1 2 3 4 3 2 2 1 2 4 3 3 7 6 5 3 4 4 5 6 6 6 6 5 5 6 6 7 8
1 2 3 4 5 3 3 4 4 3 2 2 2 4 2 2 3 4 4 3 2 2 1 1 1 3 1 2 3 2 3 2 2 1 1 1 3 2 4 8 5 3 1 3 3 3 3 2 4 5 3 1 1 2 3 2 1 0 1 2 1 4 5 2 1 3 1 3 3 4 4 6 8 9 9 6 5 6 7 6 5 6 6 5 6 6 7 8
1 1 2 4 5 4 2 1 4 4 2 1 1 3 1 2 4 3 3 3 3 2 1 2 0 3 3 3 4 3 4 3 2 2 2 2 4 3 4 6 5 5 4 5 5 4 5 3 2 6 6 6 6 6 6 3 1 1 2 2 2 1 4 4 3 1 2 2 1 5 6 4 10 11 11 10 7 7 7 6 6 6 5 5 6 6 7 7
1 2 1 1 2 2 1 1 3 3 2 3 1 2 2 2 4 2 1 2 2 1 1 1 1 2 1 3 4 1 3 4 4 3 1 3 3 4 6 4 5 10 8 4 4 4 5 3 1 5 4 6 7 5 1 2 1 2 2 2 2 1 4 5 2 4 4 3 4 7 5 2 8 9 10 11 8 7 7 5 6 7 5 4 5 6 7 8
1 2 1 2 1 1 1 1 2 4 2 2 2 2 1 1 1 1 1 2 3 1 1 2 4 1 4 5 5 3 1 3 4 2 2 2 3 4 6 3 3 8 7 4 4 4 6 2 1 3 2 4 3 1 1 1 1 2 3 4 2 2 4 4 5 6 6 5 6 6 5 5 7 9 10 10 7 7 7 6 6 5 2 4 6 7 8 9
1 1 3 1 1 3 4 2 2 4 3 3 2 1 2 2 3 4 2 2 4 3 2 1 4 5 4 5 6 4 3 3 0 3 2 1 2 2 4 2 2 5 7 5 4 2 5 1 1 2 2 4 4 4 3 2 2 2 3 6 5 4 5 5 5 5 6 6 7 5 4 7 8 8 10 9 6 6 6 5 5 3 3 6 7 8 9 9
2 2 2 1 1 1 2 2 3 3 2 2 2 3 3 4 5 4 2 3 1 3 2 3 4 4 1 4 6 4 7 8 6 4 4 2 1 0 0 1 2 5 7 5 3 2 3 1 1 3 2 4 6 5 5 4 1 4 6 6 4 4 3 3 3 2 3 5 5 1 2 7 7 7 8 7 6 5 5 5 5 3 4 6 6 7 8 9
3 2 1 3 1 1 1 1 4 4 1 1 3 4 2 4 5 3 2 3 5 3 2 5 6 1 2 3 6 4 6 7 7 7 8 6 3 3 1 1 3 3 6 3 2 4 3 2 1 4 3 4 4 5 5 4 2 2 7 6 3 2 1 3 2 3 4 3 4 4 4 6 6 4 5 7 6 6 6 6 5 4 4 6 7 8 8 9
4 4 1 4 1 2 2 2 3 3 2 3 4 3 2 4 4 2 1 1 2 2 4 7 7 3 4 4 5 6 8 8 7 6 6 5 2 2 1 1 4 1 1 1 2 2 3 3 2 3 2 4 5 3 3 4 5 4 6 4 5 3 2 3 4 4 5 3 1 2 5 7 5 4 6 7 8 7 7 5 4 5 5 6 8 9 9 9
Wind_Direction
20 19 17 16 14 13 12 10 10 9 12 12 11 10 9 11 13 13 8 4 360 354 349 341 335 332 327 327 327 326 323 317 309 278 242 270 256 249 260 266 278 297 303 318 336 357 34 36 31 41 58 43 22 352 13 33 34 58 77 80 94 150 162 176 174 175 139 123 120 42 79 109 105 78 80 60 50 57 58 40 34 48 54 66 85 91 64 63
18 18 16 15 13 11 11 9 9 7 9 10 9 8 7 10 12 11 6 3 360 357 356 349 345 337 330 334 332 329 326 323 315 261 261 299 253 239 247 258 269 280 293 324 355 19 39 34 34 44 49 37 7 5 23 19 37 75 105 84 128 205 307 126 151 144 110 125 128 87 72 91 110 107 21 73 54 51 68 38 31 55 43 48 65 77 76 76
16 16 15 14 12 10 9 8 8 6 6 7 6 6 6 8 10 9 7 5 3 1 0 356 352 343 340 340 339 336 329 344 12 282 341 11 234 225 235 245 254 270 301 325 17 41 72 110 73 58 55 48 17 20 37 15 32 77 101 79 148 197 63 41 114 112 107 127 119 86 69 64 63 48 35 100 84 53 68 51 49 62 44 38 49 70 78 76
13 14 13 12 11 9 8 8 7 5 4 4 2 4 5 6 7 7 8 12 13 9 4 1 355 350 349 345 348 343 342 43 20 305 15 4 306 245 236 242 278 309 310 311 31 78 102 96 69 57 70 48 354 25 38 357 47 68 84 107 177 146 85 35 94 104 99 108 106 94 84 76 60 55 64 112 94 54 22 327 106 104 96 72 54 62 71 72
11 12 11 10 9 8 8 7 6 5 2 0 359 360 1 2 3 3 8 15 18 15 8 3 358 357 352 348 355 345 6 59 299 304 15 351 334 357 346 7 352 331 302 310 97 122 102 79 63 48 61 49 356 25 20 336 81 80 43 101 128 117 100 79 97 100 100 94 89 89 90 96 87 52 47 89 93 94 334 324 120 114 114 98 81 73 69 71
9 9 9 8 8 7 7 6 6 4 1 358 356 355 356 356 355 359 2 6 10 10 8 6 2 360 353 349 356 359 52 91 258 300 18 332 331 347 340 338 324 330 329 358 107 119 89 52 58 53 53 57 31 46 32 335 72 91 42 39 66 94 108 115 95 87 95 90 80 86 100 111 93 68 32 69 78 99 331 298 168 96 97 97 84 79 75 76
6 7 7 6 6 6 6 6 5 3 1 357 354 349 347 348 348 354 1 2 1 2 5 6 5 3 357 350 351 29 73 198 263 316 8 319 321 316 316 312 306 327 325 72 98 98 85 68 79 88 79 71 51 57 59 40 63 84 84 58 63 83 96 101 90 82 82 85 88 90 87 72 89 94 44 57 60 55 5 293 118 90 90 93 84 84 88 88
4 4 5 5 5 5 5 5 4 3 1 357 352 343 338 338 341 349 2 5 360 1 360 1 6 5 360 356 7 28 20 300 309 2 342 329 327 322 321 323 332 345 337 133 125 115 95 87 107 117 79 66 80 71 52 55 52 66 98 96 77 76 85 90 87 88 85 88 96 83 78 71 85 104 79 49 348 326 352 308 93 91 85 89 94 100 99 95
2 2 3 3 4 4 4 4 3 2 1 357 349 336 330 329 334 351 2 4 5 3 357 357 2 6 2 5 67 45 308 319 10 358 331 321 331 344 334 342 10 44 71 135 136 127 117 125 146 134 113 103 89 67 33 71 47 46 103 102 94 88 87 91 87 88 90 95 102 90 84 87 87 93 67 335 272 244 206 48 85 98 88 89 100 105 110 109
360 0 2 2 2 3 3 3 2 2 1 356 342 326 320 321 332 351 359 4 7 3 357 354 353 2 5 16 67 67 290 340 360 297 312 314 6 18 8 9 26 102 124 142 146 134 135 160 147 117 114 103 75 44 22 93 98 84 96 87 86 90 74 82 88 88 87 76 104 107 101 39 355 73 95 272 244 174 132 80 83 103 100 107 111 109 114 114
358 359 0 1 2 2 2 2 2 2 2 356 337 317 310 317 334 350 1 7 7 7 360 353 352 358 12 58 81 90 328 349 351 164 276 322 33 35 49 91 67 103 125 130 156 153 131 141 137 109 97 83 83 58 39 96 107 95 94 78 66 75 64 67 93 106 86 57 110 113 98 357 355 76 153 220 203 150 124 105 97 98 105 126 120 116 110 113
357 358 359 1 1 1 2 1 1 2 3 359 341 316 309 321 339 350 5 11 9 10 3 359 3 3 31 61 115 118 349 339 344 71 229 72 52 40 49 82 38 98 135 117 108 126 129 135 116 86 98 126 105 82 73 103 99 90 85 82 68 68 68 49 75 118 100 138 204 90 64 352 353 126 193 194 145 126 119 136 144 105 116 132 125 121 107 116
356 356 358 360 1 1 1 0 1 2 4 4 355 359 349 335 351 2 17 19 16 15 10 12 9 16 44 28 208 5 356 340 16 72 216 121 87 61 60 84 77 133 139 125 116 120 124 121 102 94 112 103 104 123 117 83 78 86 67 85 83 52 47 3 62 122 111 141 224 44 57 302 303 259 250 206 137 116 122 169 174 149 142 139 144 135 120 129
355 356 357 359 0 1 1 1 1 2 5 6 12 54 35 356 20 30 31 23 20 24 22 22 12 28 50 319 282 5 359 359 43 125 201 131 116 100 85 89 93 120 130 123 116 108 106 104 97 92 79 79 115 117 82 35 43 79 55 50 76 72 327 303 148 144 111 149 52 61 128 247 276 265 262 220 155 130 152 198 188 176 173 163 164 151 148 152
354 355 356 358 360 1 1 1 2 3 5 9 22 50 36 42 66 44 32 26 28 35 45 37 20 39 48 320 334 10 10 19 18 224 187 152 130 117 100 91 94 110 117 113 108 101 97 94 83 67 46 29 83 88 50 19 18 51 73 343 7 82 259 300 210 167 139 170 57 61 120 250 265 251 248 208 159 147 174 210 203 195 197 179 173 165 157 140
353 354 355 356 359 2 1 0 5 5 5 14 27 36 50 91 84 42 28 28 40 43 52 46 26 61 74 325 344 20 29 11 344 262 183 170 143 134 124 101 95 101 107 109 105 94 79 74 60 61 82 49 76 91 59 39 2 1 88 164 340 84 121 305 224 198 162 135 63 58 143 228 259 238 229 194 167 165 185 217 221 213 214 188 170 175 158 135
352 353 353 355 358 2 2 0 6 8 8 18 33 41 74 101 69 26 21 27 67 69 48 49 23 53 41 302 331 356 337 340 332 221 180 176 160 151 133 101 85 94 103 106 96 71 46 51 52 33 60 57 77 93 65 33 315 322 45 104 192 125 138 243 259 230 143 120 151 95 142 234 267 236 207 194 177 174 196 221 230 222 222 198 166 171 170 167
351 352 352 353 356 1 2 1 7 12 9 10 29 40 65 90 22 9 13 17 66 55 32 22 26 47 320 311 331 308 305 323 331 185 177 181 181 174 141 95 89 85 83 77 54 40 24 27 59 66 39 19 7 76 83 229 204 191 124 108 120 119 146 216 249 218 144 118 173 130 276 261 281 276 217 203 179 182 210 218 225 224 217 199 173 178 189 187
350 351 351 351 354 360 2 2 9 17 17 5 327 7 27 5 348 348 360 9 51 22 348 306 30 99 241 282 283 300 309 319 334 189 183 171 173 168 99 86 88 72 75 62 18 29 60 38 45 80 88 261 231 161 168 203 164 156 163 132 139 151 229 233 252 231 158 122 180 179 224 255 267 263 229 218 186 192 224 224 227 227 213 201 183 189 198 200
349 350 349 350 352 357 1 2 11 25 32 32 34 43 23 4 2 342 344 357 168 231 264 236 165 200 259 276 287 316 323 333 134 216 192 162 173 184 59 54 42 37 68 67 336 2 84 76 60 185 205 223 224 194 172 168 132 131 121 107 138 141 277 250 253 242 152 121 247 203 212 253 248 242 231 218 189 208 230 228 232 226 212 204 193 199 203 210
347 348 348 349 349 355 360 1 13 29 41 51 61 72 55 32 40 328 327 323 273 240 234 237 208 242 265 264 282 320 4 26 335 299 193 171 179 212 324 28 47 28 350 324 297 360 61 77 340 240 216 204 175 125 123 105 93 104 108 102 105 134 264 269 221 197 148 123 279 198 198 256 251 243 238 196 188 220 221 218 230 223 215 209 198 205 204 202
346 347 347 347 347 352 357 1 16 25 43 55 62 80 99 46 3 278 279 312 295 256 227 256 244 265 264 257 264 243 93 13 312 304 192 160 16 263 275 47 80 181 319 14 18 7 33 41 276 256 166 104 73 75 87 83 83 84 89 106 101 251 246 313 5 114 119 58 286 207 202 262 264 244 230 200 203 227 218 216 228 214 211 214 205 207 198 182
345 345 346 346 345 350 354 3 19 21 38 52 62 83 62 8 360 304 182 253 299 297 256 261 234 268 285 279 243 159 116 160 269 287 188 148 16 217 139 73 96 126 5 36 113 86 38 274 259 186 119 94 61 49 80 76 70 91 107 116 199 253 142 308 332 62 74 68 201 166 200 284 288 268 242 217 213 231 223 219 226 207 206 214 211 203 189 183
344 344 345 344 344 348 352 4 21 15 22 54 71 51 10 357 3 36 153 141 304 299 260 228 223 236 266 294 165 143 164 190 196 265 177 148 147 161 127 122 107 66 6 92 119 120 203 249 173 105 90 98 97 52 86 88 40 9 157 136 176 200 166 191 190 112 21 7 101 93 25 309 311 294 264 247 214 235 228 215 228 223 211 211 209 198 189 189
344 343 343 344 343 346 351 20 13 1 1 79 78 5 354 353 352 15 134 52 312 296 284 235 268 243 237 267 172 165 144 224 223 240 178 159 154 114 64 155 106 73 193 152 101 100 240 254 144 100 64 77 105 133 164 128 53 330 214 178 181 167 146 133 118 90 31 352 330 72 42 299 317 302 261 272 247 242 233 213 228 229 208 202 205 199 190 189
342 342 342 343 342 346 355 63 352 348 351 85 5 341 345 347 344 163 124 43 292 293 316 262 20 289 283 334 219 108 48 311 259 216 163 168 155 108 57 279 28 94 174 165 105 115 128 33 81 105 85 62 62 302 222 136 92 10 204 168 153 130 126 129 123 99 73 280 297 68 107 269 316 307 268 285 266 258 270 243 236 227 208 206 208 200 186 185
339 341 341 340 342 348 357 340 336 342 12 339 335 337 338 341 349 154 98 35 69 281 311 285 348 34 321 321 49 88 78 290 287 104 144 168 155 58 52 279 335 131 167 110 51 224 173 67 56 76 75 61 43 304 223 133 97 333 273 119 115 119 131 141 126 101 151 219 332 22 102 162 304 284 285 306 267 274 283 260 249 230 213 213 209 198 186 187
335 339 340 338 341 345 347 326 329 336 330 325 331 335 333 335 118 139 75 67 245 286 209 285 305 330 318 342 57 87 232 288 19 296 211 144 154 56 42 257 207 189 135 98 84 266 196 108 123 115 79 72 232 237 195 130 79 294 229 100 104 111 118 121 106 89 43 56 345 324 43 73 277 279 315 359 284 282 275 255 248 229 216 213 207 200 190 191
331 336 337 335 337 341 338 325 318 306 320 329 333 330 328 331 140 94 65 107 273 304 224 337 315 294 334 10 27 20 301 4 133 269 354 100 136 67 94 222 152 139 49 97 161 244 245 209 183 140 111 225 232 236 180 129 91 189 127 84 74 74 77 79 88 93 40 40 283 275 34 83 278 287 325 11 299 265 259 255 249 224 215 210 203 198 188 189
327 332 334 333 334 335 330 322 314 320 327 330 329 326 328 24 93 62 64 180 287 285 259 344 307 311 30 46 334 342 323 281 286 318 18 77 349 39 119 153 103 102 13 38 108 223 313 289 174 129 147 198 163 102 132 112 108 136 97 62 52 40 47 52 55 85 62 359 268 254 135 106 300 287 267 230 224 227 238 265 264 219 211 208 201 194 187 188
323 328 331 329 328 327 322 319 326 326 325 327 329 332 356 59 64 85 146 233 255 306 346 338 300 1 49 97 290 319 330 295 316 2 38 350 3 28 73 60 59 59 12 13 27 325 339 1 274 248 180 139 96 69 40 27 67 90 67 62 57 353 16 27 359 39 67 305 271 259 149 113 216 267 247 239 246 232 220 247 250 221 213 208 198 192 187 184
321 326 326 325 322 314 296 296 316 316 319 328 335 359 84 46 29 127 257 309 289 287 355 289 287 8 24 360 274 278 258 285 312 106 159 147 104 165 160 184 165 26 341 303 3 342 331 292 302 310 239 128 89 63 20 10 35 65 68 71 63 347 10 21 336 6 38 256 270 305 58 118 228 248 249 254 259 247 227 231 232 218 210 206 197 191 184 172
321 324 325 323 318 306 295 300 308 307 318 332 346 48 80 80 211 214 278 331 248 259 256 259 303 333 44 44 318 286 253 242 284 25 144 97 119 257 281 196 154 104 308 238 43 4 328 307 326 353 291 170 109 111 17 345 36 98 119 98 75 50 34 354 303 339 322 265 280 318 320 314 286 268 237 238 256 255 243 240 230 216 206 202 195 181 172 167
321 325 324 322 318 307 302 305 297 304 327 343 41 71 78 115 213 196 263 276 250 290 322 317 319 349 64 91 271 271 259 271 282 81 31 33 55 290 304 278 137 101 103 126 162 111 62 315 294 172 244 256 124 150 166 145 109 154 157 125 119 142 111 331 261 242 301 286 300 313 296 186 270 275 220 227 267 285 274 258 230 217 202 180 167 159 164 169
322 327 326 328 338 329 308 257 266 325 343 12 64 74 117 195 236 167 225 262 286 312 317 354 45 39 18 327 304 335 131 280 325 64 37 70 173 224 216 212 205 118 112 138 235 114 97 257 259 255 180 108 117 188 145 108 66 278 161 97 58 170 134 102 169 181 221 303 304 291 250 212 228 272 281 283 302 315 322 309 224 198 169 138 148 166 169 169
326 335 339 351 5 358 310 178 213 352 14 62 68 78 173 209 202 163 203 257 360 311 332 3 47 61 3 325 333 350 358 286 347 33 341 285 209 223 223 214 197 162 142 150 205 157 89 273 284 324 24 93 146 167 127 87 93 274 95 132 242 157 118 110 145 359 67 43 308 301 292 297 319 311 311 341 340 334 354 2 39 161 152 149 169 179 174 172
334 340 342 353 5 3 323 139 106 1 39 85 96 183 220 223 177 172 207 318 327 16 65 38 23 69 4 328 317 313 335 13 5 21 278 312 267 213 254 270 201 188 180 149 190 200 136 267 298 350 55 305 183 119 62 38 116 85 332 225 212 88 82 102 102 1 36 37 310 339 305 301 350 348 321 346 341 317 336 8 42 131 159 177 187 181 176 170
334 334 327 350 13 12 7 80 73 19 54 85 103 235 225 215 176 189 206 8 320 44 84 125 203 115 169 155 296 297 334 24 356 13 151 338 297 211 255 285 210 200 204 140 105 213 119 136 298 313 149 297 351 76 31 346 20 61 184 181 96 77 360 10 67 32 23 7 310 317 308 281 208 239 302 324 299 283 303 322 193 191 194 197 191 178 168 154
333 335 333 12 19 17 36 75 52 43 64 97 203 256 236 238 249 230 210 143 103 92 103 199 197 80 159 168 235 292 341 50 17 51 107 60 289 246 221 250 252 23 127 128 128 145 94 121 271 292 223 299 1 55 251 302 358 28 80 57 26 126 157 330 73 139 111 20 301 321 338 301 232 218 231 261 257 249 258 253 230 221 214 204 188 178 170 163
351 12 261 336 12 12 66 68 36 59 74 161 197 216 266 265 275 261 232 197 177 158 166 199 175 97 212 209 213 271 360 91 141 119 107 145 266 287 292 247 302 341 80 92 103 104 61 102 198 293 324 22 329 230 199 189 144 61 62 330 325 78 126 112 9 89 117 128 174 337 333 280 255 211 199 239 253 231 213 222 232 229 217 207 190 182 178 174
24 38 253 306 8 3 132 67 31 72 93 168 195 228 276 275 286 292 277 211 205 234 174 169 168 162 201 180 197 250 337 54 87 83 72 154 136 278 276 213 266 267 84 70 76 130 109 116 157 281 345 187 238 249 202 185 169 147 164 200 186 141 117 88 332 313 68 111 163 149 299 275 263 205 202 235 254 246 228 221 234 233 217 208 192 179 180 175
66 129 268 341 360 349 110 67 353 91 118 186 212 227 269 301 284 291 310 314 210 248 70 144 178 169 184 176 206 237 127 54 20 59 113 213 175 201 271 309 259 200 104 100 161 178 145 102 104 180 224 220 249 268 192 171 146 127 135 160 141 129 120 120 261 274 80 70 139 116 98 271 267 229 216 243 259 262 249 228 235 242 224 205 183 167 168 164
140 240 289 356 3 23 85 41 315 360 219 243 257 236 238 295 289 295 318 334 280 280 45 16 189 141 196 206 184 199 118 85 352 8 189 255 230 211 287 322 287 143 80 113 182 129 104 77 69 318 299 300 301 326 18 54 85 91 39 83 120 123 131 145 178 189 144 158 158 90 308 271 278 296 246 252 269 276 261 237 233 242 235 198 172 163 158 151
197 258 284 338 356 33 104 178 245 274 277 307 352 318 288 251 225 259 284 283 283 149 95 211 186 150 188 150 104 96 76 109 220 288 212 209 249 221 355 348 336 100 76 179 176 122 114 82 85 71 2 349 344 347 354 359 37 81 313 322 129 113 100 120 140 82 50 216 154 128 254 259 274 310 303 269 283 286 265 246 235 237 235 199 169 164 157 148
271 264 271 307 345 53 140 186 153 161 259 336 345 302 304 275 238 222 230 260 260 178 162 286 174 129 101 68 67 31 20 92 167 289 346 228 277 291 6 360 6 45 61 165 138 101 120 126 114 118 126 170 228 278 263 270 341 332 294 334 54 114 116 140 89 60 325 242 151 159 230 267 294 314 319 317 325 307 287 282 268 245 230 201 170 163 160 153
307 267 278 318 357 59 115 155 112 131 199 157 294 289 219 239 281 255 193 236 257 203 173 305 100 90 55 57 64 19 356 20 85 57 21 304 285 291 333 350 9 11 22 81 75 76 105 88 110 138 159 183 189 217 224 186 108 320 305 351 14 119 117 103 89 92 209 178 189 222 213 276 303 306 311 313 318 308 294 290 277 258 232 203 174 163 162 155
211 237 198 158 352 25 45 7 85 119 186 170 196 276 210 219 297 323 161 216 259 234 80 14 53 103 152 112 99 72 341 358 18 42 357 293 274 287 314 338 9 353 353 49 54 70 98 61 110 146 180 205 190 199 218 122 155 217 239 308 328 151 117 107 155 218 174 123 289 258 190 206 285 290 298 300 302 299 284 262 259 261 240 192 160 151 153 150
209 236 206 152 196 200 172 249 161 133 157 182 192 267 256 253 297 277 264 324 350 20 98 10 357 311 193 159 125 134 108 21 2 341 315 311 311 325 333 344 14 357 359 14 14 77 109 105 185 157 287 268 217 233 50 109 234 214 210 247 261 164 158 177 222 210 160 165 248 236 175 206 264 281 288 287 281 275 270 261 262 267 213 156 150 154 159 160
173 251 290 339 170 187 177 194 153 138 179 209 215 248 209 214 243 241 234 2 349 342 101 133 302 293 212 159 124 134 170 147 133 276 257 288 338 354 357 341 329 3 25 27 2 77 114 133 227 115 346 313 320 335 17 42 337 303 258 244 241 235 217 218 237 211 183 219 238 205 204 250 257 257 269 282 280 260 263 277 275 253 167 156 164 170 172 172
163 199 270 32 59 195 161 128 121 132 216 224 226 250 202 193 229 251 211 137 209 309 43 152 238 272 216 147 122 150 197 174 162 200 190 149 354 231 129 247 267 347 15 28 350 15 86 153 233 92 65 308 329 359 14 14 296 262 285 279 268 288 274 232 236 192 194 259 268 220 295 281 266 245 256 282 302 296 294 296 282 251 182 167 177 185 183 182
225 271 200 113 129 232 150 118 119 127 192 221 209 235 220 203 214 226 243 182 176 217 227 177 190 206 45 95 113 155 199 172 158 180 173 157 177 198 211 205 193 341 358 14 344 356 58 102 44 68 64 287 318 9 349 345 18 302 308 300 258 243 234 228 231 187 186 250 301 348 326 271 262 281 292 298 325 336 312 294 285 266 206 177 191 201 193 189
222 295 344 111 153 264 152 118 104 128 202 214 210 227 226 234 236 164 147 257 189 199 203 171 159 117 62 99 143 185 194 178 175 187 175 154 161 210 248 152 162 156 13 71 12 360 88 108 112 91 97 264 290 353 352 10 26 334 291 242 197 204 266 290 293 246 203 172 161 260 248 244 264 332 328 313 328 330 302 276 258 246 217 196 206 210 203 197
Height
799 796 794 792 789 787 786 784 782 780 778 776 774 773 771 769 768 767 766 765 764 763 763 762 761 761 760 759 759 759 758 757 756 757 757 754 753 754 754 754 753 753 753 753 753 753 753 753 752 751 751 754 759 761 761 763 764 767 781 794 800 803 800 795 798 798 798 803 804 802 800 802 805 803 800 800 803 805 805 804 804 803 803 804 806 806 806 806
799 796 794 792 790 787 785 784 782 780 778 776 774 773 771 769 768 767 765 765 764 763 763 762 761 761 760 759 759 758 758 756 756 756 755 753 753 753 753 753 753 753 753 753 753 754 755 757 755 753 756 761 764 763 764 766 767 777 789 796 800 801 796 791 793 796 798 802 803 802 801 801 804 803 801 805 811 808 808 809 806 806 806 805 806 807 808 807
799 796 794 792 789 787 785 783 781 779 777 775 774 772 771 769 768 767 765 765 764 763 763 761 761 760 759 759 758 758 757 756 757 756 753 752 752 752 752 753 753 753 753 753 754 754 756 757 756 757 761 766 768 767 768 770 773 781 788 795 800 796 794 793 793 795 797 799 802 803 802 802 803 802 803 808 813 811 811 812 809 810 809 808 808 808 809 809
799 796 794 791 789 787 785 782 781 779 777 775 773 772 771 769 768 767 765 765 764 763 762 761 761 759 760 758 758 758 755 758 760 755 753 752 752 752 753 753 753 753 753 753 754 755 756 756 756 759 764 770 772 770 773 775 776 782 788 795 796 792 795 796 793 795 797 798 801 803 804 805 804 803 805 809 813 816 814 811 810 811 811 810 809 809 809 809
799 796 794 791 789 787 784 782 780 778 777 774 773 771 770 769 768 766 766 765 764 764 762 762 760 760 759 757 759 756 757 770 764 752 754 753 753 753 753 754 753 754 754 754 755 756 756 756 758 762 768 774 775 774 778 778 776 785 791 793 791 790 796 797 795 796 797 799 801 804 805 806 805 805 808 809 814 817 814 812 810 809 810 810 810 810 810 810
799 796 794 791 789 786 784 782 780 778 776 774 772 771 769 768 767 766 766 765 765 764 763 762 760 760 759 757 758 755 761 774 762 751 755 753 753 754 753 754 754 754 754 755 755 756 758 759 762 768 773 778 780 781 781 778 777 787 793 791 790 790 795 797 795 797 798 799 803 804 805 805 806 810 811 811 815 815 813 813 811 809 809 809 809 810 810 811
799 796 794 791 789 786 783 781 779 777 776 774 772 770 769 768 767 766 766 765 765 764 763 762 761 760 759 758 758 757 762 766 755 753 756 753 754 754 754 755 754 755 754 755 755 757 761 763 767 771 776 781 783 784 782 779 778 786 794 793 792 792 795 796 796 798 799 801 804 803 804 806 808 811 813 813 816 814 812 812 810 810 810 809 810 811 812 812
799 797 794 791 788 786 783 781 779 777 775 773 771 769 768 767 766 766 765 766 765 764 763 762 761 760 759 758 758 762 764 760 754 755 755 754 755 754 755 755 754 755 754 755 756 758 762 766 769 772 779 783 783 784 782 783 784 789 795 795 794 795 797 797 798 800 801 803 804 803 807 810 809 810 814 816 815 813 812 812 810 810 810 811 812 812 813 813
799 797 794 791 788 785 782 780 778 776 774 772 770 768 767 766 766 766 766 765 764 765 763 762 762 760 760 758 760 768 766 757 755 756 755 756 756 755 756 755 755 755 755 757 756 757 762 767 769 770 778 782 782 784 783 787 792 791 793 795 796 799 799 799 801 802 803 804 803 806 812 811 808 809 815 816 814 813 812 811 811 810 811 812 813 813 813 813
799 796 794 791 787 784 782 779 777 775 773 771 769 767 767 766 766 766 765 765 764 764 763 762 761 760 761 759 764 772 763 755 756 756 756 756 756 756 756 755 756 755 756 758 757 758 760 764 767 766 773 779 782 785 785 789 793 792 793 796 798 801 801 801 803 804 804 805 804 808 813 811 807 811 817 816 812 813 812 812 812 811 812 813 813 814 813 814
799 796 794 790 787 784 781 778 776 774 772 770 768 767 766 765 765 766 765 765 764 764 763 762 761 760 760 760 768 772 759 755 757 756 757 757 756 757 756 757 756 756 757 757 759 758 759 762 763 765 774 780 784 788 788 789 791 793 794 799 802 802 804 805 806 806 806 809 807 807 811 811 809 812 816 814 812 812 812 813 813 812 813 813 814 814 814 814
799 796 793 790 787 783 780 778 775 773 771 768 767 766 765 765 765 765 765 765 764 763 763 762 761 760 760 762 767 765 757 757 757 756 758 757 757 757 757 757 757 756 756 757 760 760 761 762 761 768 777 780 786 792 793 790 790 794 796 804 808 805 808 808 807 807 806 810 808 806 813 817 816 816 815 813 812 812 812 814 813 813 814 814 814 814 815 815
799 796 793 790 787 783 780 777 774 773 770 768 766 765 765 765 765 765 765 765 764 763 763 761 761 759 761 766 763 758 757 757 756 757 758 757 758 758 758 759 757 758 757 758 762 763 764 763 763 770 775 780 788 790 789 790 792 797 799 806 811 812 814 810 807 809 808 810 808 808 819 825 821 817 814 813 812 812 814 814 813 814 814 814 815 815 816 816
799 796 793 790 787 783 780 777 774 772 769 768 766 765 765 765 765 765 765 764 763 763 762 762 762 759 763 766 759 757 757 756 757 758 758 758 758 759 760 760 759 760 760 760 763 765 765 764 764 771 776 781 786 786 790 794 796 802 805 808 815 819 819 810 807 810 810 810 807 810 822 826 820 816 813 813 812 812 815 814 813 814 814 814 815 816 816 816
799 796 793 790 787 784 780 777 774 771 769 768 766 766 765 765 765 765 764 764 762 763 762 762 762 761 766 766 758 757 758 757 758 758 758 759 759 761 762 761 761 761 762 763 765 766 767 766 769 777 782 781 783 790 798 801 802 807 811 815 819 820 819 812 807 809 811 811 809 812 822 824 819 815 812 812 812 812 814 814 813 813 814 814 815 816 817 817
799 797 793 791 788 784 781 777 775 772 770 768 767 766 765 765 765 765 765 763 762 763 761 763 762 762 771 768 758 758 759 758 759 758 759 760 760 762 762 762 763 763 764 765 766 768 767 769 776 783 786 787 792 797 804 809 810 810 813 818 820 819 821 817 809 808 808 810 812 815 821 821 816 811 810 812 812 812 813 813 813 813 813 814 815 817 817 818
800 797 794 791 788 785 782 778 776 773 770 769 768 767 766 765 765 764 764 763 764 763 761 764 761 763 769 763 759 762 760 759 759 759 759 760 761 762 762 763 764 765 765 766 767 769 770 775 782 786 789 796 799 799 807 817 817 814 815 818 821 820 821 819 814 808 806 810 815 816 818 817 813 810 810 811 811 812 813 813 813 813 813 814 815 817 817 818
800 797 794 791 788 786 783 780 777 774 772 770 768 768 767 766 765 765 764 764 763 763 764 764 762 773 777 764 763 766 761 759 759 758 760 760 762 763 763 763 766 767 769 771 772 773 777 781 787 792 797 800 801 801 809 814 811 812 814 816 821 821 820 820 815 808 807 812 815 817 817 814 812 812 810 810 811 812 812 812 812 812 813 814 815 816 817 817
800 797 794 791 789 786 784 781 778 775 772 769 769 768 766 765 765 764 764 764 766 769 773 771 769 782 783 768 763 763 759 759 759 759 760 761 762 764 763 763 767 770 775 779 779 779 782 786 792 798 803 802 800 800 803 803 801 806 810 812 816 817 818 817 811 806 807 813 816 815 816 812 811 812 811 810 811 811 811 811 812 812 813 814 815 816 816 817
800 798 794 792 789 787 784 782 780 777 773 770 768 767 771 775 774 773 769 766 770 773 774 774 772 776 774 765 761 760 760 760 759 760 761 761 762 764 764 765 770 774 779 784 783 782 784 791 798 800 800 798 796 797 799 800 800 803 808 811 814 815 814 811 808 805 804 811 816 813 814 813 810 810 810 810 811 812 811 811 811 811 812 813 814 815 815 816
800 798 795 792 789 787 785 782 781 779 776 773 769 772 783 789 788 787 782 774 769 769 770 770 770 770 766 763 761 759 762 762 760 760 761 761 762 767 770 770 777 782 784 786 785 783 785 794 799 795 796 796 796 800 801 801 802 803 806 809 813 815 812 807 806 805 804 810 815 815 815 812 808 809 809 810 811 810 809 809 809 809 811 812 812 813 814 815
800 798 795 792 789 787 785 783 782 780 779 775 773 779 788 790 790 790 789 784 773 767 769 768 768 768 762 760 759 759 765 768 765 761 759 761 764 771 774 775 782 787 786 786 786 789 793 796 795 793 795 796 798 800 799 801 802 803 806 808 811 813 811 808 808 807 806 809 814 816 815 809 807 808 807 808 808 806 805 806 807 807 810 811 811 811 812 814
801 798 796 793 789 787 785 783 782 781 779 778 780 784 787 788 787 787 788 790 781 769 767 768 768 767 762 760 759 759 766 770 770 764 758 761 767 770 773 777 784 786 787 787 789 797 801 796 793 794 793 793 798 800 799 801 803 805 806 807 810 811 812 811 811 810 807 809 813 815 815 809 805 805 804 804 804 803 803 803 804 806 807 807 808 809 810 812
801 798 796 793 789 786 784 783 782 781 781 782 784 785 787 787 786 786 786 790 788 774 766 766 765 765 763 760 757 761 767 767 767 763 756 761 768 770 772 778 783 786 788 789 789 795 798 794 792 794 793 793 799 801 799 800 804 807 805 805 807 807 810 812 811 810 809 811 811 812 816 810 805 807 803 801 803 803 802 802 803 803 804 805 805 806 808 809
801 799 797 793 790 786 783 783 782 783 783 783 784 785 786 785 784 784 785 793 794 778 767 766 765 763 759 758 758 760 764 764 762 759 754 758 766 770 774 777 781 787 791 791 790 791 794 792 790 792 794 795 799 799 798 798 801 805 802 801 803 802 807 811 811 812 817 819 812 814 824 817 807 807 804 801 803 802 801 802 801 801 802 804 804 805 807 808
801 799 797 794 792 786 783 783 784 784 783 783 784 784 785 784 783 783 787 799 798 782 773 770 769 765 758 760 759 759 770 769 757 754 755 756 759 765 774 779 780 785 789 789 789 790 791 791 790 792 794 797 798 796 798 799 800 804 801 799 802 802 804 810 810 813 822 825 816 815 826 826 812 803 802 805 805 802 801 801 799 800 801 802 802 803 805 807
801 799 797 795 793 789 787 787 788 786 784 785 783 783 783 782 782 781 790 809 805 785 779 774 769 765 761 762 759 765 781 774 757 755 755 757 758 761 773 782 781 783 784 787 794 793 789 790 792 794 795 798 798 795 796 797 799 803 801 798 801 802 805 810 810 813 821 823 819 816 821 829 822 806 805 809 805 802 801 799 798 798 800 799 800 801 803 804
801 799 797 795 794 793 791 791 790 786 786 785 782 783 782 781 782 782 798 820 808 782 777 773 765 761 760 761 760 767 775 769 768 765 754 755 760 762 775 781 780 783 781 786 798 794 786 789 792 793 796 798 795 792 793 794 798 802 800 799 802 804 807 810 810 814 821 823 824 822 820 830 827 808 807 810 805 803 798 793 794 795 796 798 798 799 800 802
800 799 797 795 793 793 792 791 789 787 786 784 782 782 780 780 781 786 807 820 800 778 775 771 765 764 764 764 766 768 767 767 773 766 754 758 761 762 775 778 778 784 782 784 791 789 785 785 785 788 793 793 790 791 792 791 796 800 799 801 804 808 810 813 813 814 820 825 827 824 822 831 828 807 804 809 803 799 792 788 790 791 793 795 796 798 799 801
799 798 797 794 792 791 790 788 787 786 784 782 782 781 779 781 786 802 821 816 795 782 776 771 771 771 771 772 773 773 771 770 768 763 761 764 763 763 771 773 775 782 784 784 785 785 785 782 781 784 787 787 788 792 794 792 793 796 798 800 803 808 810 815 818 815 822 830 826 823 823 828 829 810 801 803 794 789 786 784 787 789 791 793 793 796 797 799
798 797 796 794 792 791 790 787 784 784 784 782 782 779 780 787 796 816 823 804 792 788 778 776 777 774 775 779 779 776 774 772 768 769 770 770 770 772 775 777 779 785 789 789 788 788 786 783 784 782 781 784 786 790 794 793 794 796 798 803 809 814 814 816 819 820 830 834 825 825 825 826 830 813 796 793 788 787 787 782 782 785 788 790 791 793 795 797
796 795 795 794 792 790 789 787 783 784 783 781 781 779 785 799 808 815 810 795 795 793 783 783 781 777 780 782 780 778 777 776 772 772 775 776 779 778 781 784 785 793 802 801 797 794 789 785 785 783 780 781 785 793 797 795 796 798 802 809 818 825 825 826 830 832 836 832 824 827 826 824 825 805 788 787 783 783 786 781 780 781 783 787 789 791 792 795
795 793 791 791 789 787 786 785 783 783 782 781 782 782 792 809 813 811 804 797 797 791 783 785 781 781 784 782 783 781 779 779 775 774 776 779 782 781 784 785 783 791 803 807 806 801 797 791 785 784 783 780 783 794 800 800 802 802 805 811 819 830 837 839 843 843 837 828 824 828 826 823 817 796 783 782 779 779 781 780 779 778 780 783 785 789 791 794
793 791 789 786 786 784 783 783 783 782 782 781 783 789 801 812 812 808 803 797 793 787 784 786 784 784 784 784 786 782 780 781 777 776 778 780 784 784 784 785 783 785 793 805 810 807 810 805 789 785 786 782 783 789 793 796 802 805 807 808 812 821 830 836 839 837 836 831 826 827 824 820 811 791 781 781 780 781 779 778 779 777 779 782 784 789 791 793
791 790 787 784 783 783 782 783 782 782 783 782 787 798 807 810 808 807 800 793 791 788 786 786 785 786 787 785 785 781 780 782 779 779 781 784 786 784 782 781 783 784 789 802 810 810 816 808 788 783 785 782 785 788 788 792 801 810 810 807 808 809 814 831 842 841 842 837 828 826 820 812 802 786 781 783 780 779 779 777 779 779 780 783 786 789 790 793
790 787 785 784 783 782 782 783 782 782 783 785 794 803 804 800 801 801 795 790 790 790 789 788 786 789 792 789 786 784 780 781 783 782 783 787 787 784 782 778 778 779 782 793 803 807 812 804 786 783 785 783 785 786 786 790 799 807 808 806 809 807 807 825 842 847 848 839 829 829 818 805 799 786 779 781 777 776 779 779 779 781 782 784 786 788 789 792
790 787 785 784 783 783 783 783 783 783 783 788 797 803 801 795 792 793 790 788 789 789 792 795 793 793 797 795 790 786 782 783 785 785 787 790 786 782 781 775 774 774 773 781 791 796 801 800 790 787 788 786 784 784 785 788 792 800 805 805 807 810 808 815 828 837 841 835 829 831 824 813 809 796 780 777 776 774 778 780 781 783 784 785 786 788 789 790
791 789 787 785 784 783 783 783 783 783 785 792 799 802 800 795 791 789 787 787 789 789 792 797 795 793 798 799 793 786 784 786 788 788 790 792 787 781 779 775 772 772 771 775 782 788 795 799 794 791 791 788 784 786 791 792 790 793 798 800 804 812 814 815 823 829 836 841 835 830 827 821 814 800 782 778 778 773 776 782 782 782 783 784 786 787 789 791
793 791 788 786 785 784 784 784 784 785 789 797 802 801 798 795 790 787 785 785 788 790 792 794 793 793 796 796 792 788 787 788 790 791 792 795 790 779 777 776 772 772 772 772 779 787 794 801 801 793 789 789 787 791 798 799 796 794 795 800 804 811 817 818 823 827 830 841 842 832 825 813 802 793 783 778 776 773 775 778 777 779 781 783 785 786 788 790
795 793 789 786 785 784 784 784 785 788 793 801 804 800 798 795 788 784 782 783 785 786 791 793 791 792 792 791 791 789 788 788 789 791 792 794 790 780 775 775 774 773 772 772 778 786 792 800 803 795 791 794 795 794 795 795 797 800 801 805 807 812 819 819 823 827 825 831 842 843 832 808 788 785 780 774 773 772 773 773 773 776 779 780 783 784 785 788
797 796 790 785 785 785 785 786 791 796 798 803 804 800 797 792 787 784 781 781 782 781 784 788 789 789 788 789 790 787 786 787 787 789 790 790 790 785 778 775 776 775 772 774 779 784 790 796 800 801 798 796 793 791 792 790 791 794 795 800 804 808 815 819 826 830 826 828 834 840 835 807 781 779 779 773 772 772 773 773 771 774 776 777 780 782 784 787
798 796 789 785 785 784 786 792 799 803 801 799 799 796 793 790 788 786 782 781 783 780 780 784 785 787 787 787 788 787 785 787 788 789 789 788 789 785 778 774 776 773 771 778 782 783 787 792 798 803 800 794 791 792 795 793 791 792 794 799 804 805 807 815 823 824 826 833 834 835 835 806 776 777 780 775 775 774 775 775 772 772 774 776 778 780 783 786
798 793 786 784 785 784 789 798 802 802 799 796 795 793 791 790 788 787 784 783 783 781 782 782 782 785 785 785 786 786 786 789 791 789 788 788 785 779 776 774 773 772 771 777 782 782 786 793 799 802 798 792 789 788 791 793 792 793 796 802 805 804 803 807 814 816 820 830 830 833 835 804 774 778 783 778 778 776 775 775 772 772 773 774 777 779 782 786
800 796 788 785 784 784 792 799 801 800 798 796 795 792 790 789 788 787 786 784 782 782 782 782 781 782 783 784 785 786 788 792 793 789 788 789 782 775 775 774 772 772 772 775 778 778 786 797 802 807 812 809 803 800 797 794 794 795 798 803 804 804 805 808 813 815 816 822 824 827 827 801 776 778 780 777 777 774 772 773 771 772 772 772 776 779 781 785
800 796 791 787 784 785 792 796 796 798 800 799 798 795 792 790 785 784 786 784 782 782 782 781 780 779 781 784 785 787 789 790 791 789 789 788 781 774 774 773 773 773 772 774 774 773 786 800 800 806 820 826 822 817 809 800 800 802 801 801 803 805 805 805 810 814 815 824 826 819 812 795 778 775 773 772 775 772 770 772 771 771 771 771 775 778 780 784
800 795 792 789 786 787 792 795 794 795 799 800 800 799 797 793 786 782 784 784 781 781 782 781 779 779 782 785 787 790 791 790 790 789 789 789 783 778 775 773 774 774 772 773 773 775 790 802 801 798 803 808 807 805 805 802 801 801 799 798 801 806 805 803 809 812 812 820 820 808 804 799 785 777 773 770 772 770 770 771 769 768 769 771 774 777 780 783
801 796 792 791 791 791 793 796 795 794 797 799 799 798 798 795 790 785 783 783 782 781 782 782 781 782 784 785 789 794 795 794 791 790 792 793 788 782 778 775 774 773 771 773 774 778 786 797 804 801 795 797 798 798 802 802 798 798 798 796 798 804 804 802 804 805 808 817 813 801 804 804 789 779 776 772 771 770 768 769 768 767 769 771 774 777 780 783
800 797 794 792 793 795 795 796 795 795 797 798 799 799 797 794 794 790 784 783 781 780 783 785 784 784 784 784 787 793 797 798 797 796 795 794 791 785 779 776 776 775 774 775 776 779 784 794 806 805 798 798 801 802 804 802 799 801 799 796 796 799 802 800 799 800 804 807 802 797 803 802 787 779 775 771 771 770 767 768 768 767 769 771 774 776 779 782
800 799 796 794 794 795 796 796 797 797 797 798 799 799 796 794 794 790 786 785 785 782 784 788 787 785 786 784 783 790 796 797 800 801 796 794 795 791 786 783 780 777 776 778 780 783 787 796 806 805 799 798 800 804 804 801 800 801 797 796 795 797 801 802 801 803 804 800 796 800 806 798 784 778 773 769 771 771 769 769 768 768 769 771 773 776 778 781
798 797 796 795 795 795 796 796 797 797 798 799 799 797 795 793 791 788 785 787 789 786 784 786 787 787 789 786 782 785 788 787 791 794 793 794 795 794 792 790 786 783 780 781 785 785 785 799 809 804 799 801 803 804 805 805 805 802 796 796 797 798 802 803 801 803 803 799 797 802 805 794 779 776 774 771 772 771 768 768 767 767 769 770 772 774 777 779
796 795 795 796 795 795 795 795 795 797 798 800 799 795 793 791 789 787 785 782 785 785 783 784 786 788 789 787 783 783 783 783 784 784 785 788 789 788 789 789 788 787 785 786 789 785 785 799 808 802 801 806 807 809 808 804 805 803 795 792 795 795 796 795 795 796 796 794 795 800 800 787 774 775 776 771 770 769 766 765 766 767 769 770 770 772 774 776
796 795 795 795 794 794 795 795 796 797 796 796 795 792 790 789 787 787 787 783 781 781 782 783 785 787 789 788 785 782 780 781 780 780 781 783 783 783 784 786 787 787 787 789 792 793 793 796 801 804 806 807 810 814 808 802 809 809 795 787 789 791 792 792 791 791 792 792 794 796 791 779 774 778 776 769 768 768 765 763 764 765 766 768 768 768 770 772